Location: Pasarilla del Rebollar
(40.6790°N, 5.0062°W)
Time: 10:11:34
(UTC+00:00)

Cosmos 1655 Rocket - Pass Details

Date: 22 April 2026
Orbit: 969 x 1006 km, 83.0° (Epoch: 20 May)

Event Time Altitude Azimuth Distance (km) Brightness Sun altitude
Rises 03:29:39 0° 350° (N) 3,677 7.4 -21.2°
Reaches altitude 10° 03:32:10 10° 349° (N) 2,723 6.7 -20.8°
Maximum altitude 03:38:22 74° 266° (W) 1,009 3.9 -19.9°
Enters shadow 03:43:31 15° 183° (S) 2,331 5.6 -19.1°
